Simultaneous Nadir Overpasses (SNOs) Predictions

Prediction of SNOs between GOES-17 and TERRA Satellite Orbit:

Table of predicted SNOs for the next 14.0 days since TLE Epoch: 8/13/2022
Index Date Time (GOES-17) GOES-17 Lat,Lon TERRA Lat,Lon Distance(km) Time Diff (sec)
1 08/13/2022 07:39:20 0.04,-137.31 -0.69,-140.88 404.58 80
2 08/15/2022 07:27:07 0.04,-137.32 -0.06,-137.92 68.64 80
3 08/17/2022 07:17:32 0.04,-137.32 0.51,-134.96 267.20 80
4 08/17/2022 19:36:06 -0.04,-137.32 0.57,-140.12 319.55 80
5 08/19/2022 19:26:32 -0.04,-137.31 -0.07,-137.18 15.51 80
6 08/21/2022 19:14:17 -0.03,-137.30 -0.66,-134.21 349.88 80
7 08/22/2022 07:33:01 0.04,-137.29 -0.42,-139.42 241.31 80
8 08/24/2022 07:20:46 0.04,-137.27 0.18,-136.46 92.30 80
9 08/24/2022 19:42:01 -0.04,-137.27 0.90,-141.62 495.21 80
10 08/26/2022 07:08:32 0.03,-137.25 0.84,-133.51 425.37 80
11 08/26/2022 19:29:46 -0.03,-137.24 0.29,-138.66 162.14 80
